AEROCUBE 8C

Last updated on Thu Nov 21 2024 00:03:39 GMT+0000 (Coordinated Universal Time)

1 41853U 16067F 24324.92321261 .00014577 00000+0 84354-3 0 9992 2 41853 98.0937 141.3856 0006348 231.3276 128.7385 15.12348485438888
UTC large
Height (km)
Speed (km/s)
/
Latitude / Longitude
Inclination (degrees)
Orbital Period (minutes)
Azimuth
Elevation
Range (km)
Doppler Factor

Next 0 passes for location: London (51.5072 / 0.1276)

Sorry there are no passes over London.